Theta_e
283 283 282 281 280 281 279 278 278 277 277 277 277 277 277 277 278 276 277 276 277 275 275 274 275 274 275 275 274 275 275 275 276 276 276 277 277 277 277 276 275 275
283 284 284 282 281 280 278 278 277 277 277 277 277 277 278 276 276 276 276 275 275 274 274 274 274 275 274 274 274 274 275 275 275 278 276 276 276 277 277 277 275 276
281 280 279 278 278 277 277 277 277 277 277 277 277 277 278 278 276 276 276 276 274 274 274 274 274 274 274 274 274 274 275 276 276 276 277 276 276 276 277 277 277 276
279 279 278 278 278 277 277 277 277 277 277 277 276 277 278 278 276 276 275 277 274 274 274 274 274 274 274 274 274 274 275 276 276 276 276 277 277 277 277 277 277 276
279 278 278 277 277 278 277 277 277 276 276 276 276 277 277 276 275 275 275 275 274 274 274 273 273 273 274 274 274 274 276 276 276 276 276 276 276 276 276 277 276 276
278 278 278 278 277 277 277 277 276 276 276 276 276 278 275 276 275 275 275 274 274 274 274 273 273 273 273 273 274 275 275 276 276 276 276 276 276 277 277 276 276 276
278 278 277 277 277 277 277 276 277 278 276 276 277 276 276 275 275 275 275 275 274 274 273 273 273 273 273 273 274 274 275 276 276 276 275 275 276 276 276 276 275 275
277 277 277 277 277 277 277 277 276 276 276 277 275 276 275 275 275 275 275 274 274 273 273 273 273 273 273 273 274 274 275 276 276 276 276 276 276 275 276 276 276 274
277 277 277 276 276 276 276 276 276 276 277 275 275 275 276 275 275 274 274 274 273 274 273 272 273 273 273 273 273 274 274 275 276 275 275 275 275 275 276 276 275 274
277 276 276 276 276 276 276 276 276 276 277 275 276 275 275 275 276 274 274 274 273 273 272 272 272 273 273 273 274 274 275 275 275 276 276 275 275 275 276 276 275 275
276 276 276 276 276 276 276 276 276 276 277 276 275 275 275 274 275 275 274 273 273 273 272 272 272 272 272 272 273 275 275 275 275 276 276 276 276 276 277 276 276 275
276 276 276 276 276 276 276 276 276 275 276 276 275 275 275 275 274 274 275 273 273 272 272 272 272 272 272 272 272 274 276 276 276 276 276 276 276 276 277 277 276 275
276 276 276 276 276 276 276 275 275 275 275 275 276 275 274 274 274 273 274 274 273 272 272 271 271 271 271 271 272 272 274 276 277 277 276 276 276 277 277 276 275 274
277 276 276 276 276 276 276 276 275 275 275 275 276 274 274 274 273 273 273 273 272 272 272 272 271 271 271 271 272 272 274 276 277 277 276 276 276 277 276 275 274 274
277 276 276 276 276 276 276 276 276 275 275 275 275 275 275 274 274 273 272 271 271 271 271 271 271 271 271 272 273 274 276 277 277 277 276 276 276 276 275 274 274 274
277 277 276 276 276 276 276 275 275 275 275 274 274 274 273 273 273 272 271 271 271 270 270 270 270 270 274 278 279 278 277 278 277 277 276 276 276 275 274 273 274 274
277 277 276 276 276 276 275 275 275 274 274 273 273 273 272 272 272 271 271 271 270 269 269 270 270 271 276 279 279 280 279 278 277 276 276 276 275 274 272 272 273 274
277 277 276 276 275 275 275 275 274 274 273 273 272 272 272 271 271 271 270 270 269 269 268 269 269 274 277 278 279 280 280 278 277 277 276 275 274 273 272 273 273 273
277 277 276 276 275 275 275 274 274 274 273 272 272 272 272 271 271 271 270 269 269 269 269 269 269 274 277 279 279 280 280 279 277 277 276 274 273 272 272 272 273 273
277 277 277 276 275 275 275 274 274 274 273 273 272 272 271 271 270 271 270 269 269 269 268 268 269 273 278 279 279 279 280 279 277 276 275 274 273 273 272 272 273 273
277 277 277 276 275 275 274 274 274 274 273 272 272 272 271 271 270 270 269 269 269 269 268 268 269 275 277 278 278 279 280 279 276 275 274 274 273 273 273 273 273 273
278 277 277 276 275 275 274 274 274 274 273 272 271 271 270 270 270 269 269 269 269 268 268 269 269 275 276 277 278 278 279 275 274 274 273 273 273 273 273 273 274 274
278 278 277 276 276 275 275 275 274 273 273 272 271 271 271 271 270 269 269 269 269 269 268 269 269 272 275 277 277 278 277 275 274 273 273 273 273 273 273 274 274 274
278 278 278 277 276 276 276 275 274 273 273 272 272 271 271 271 270 269 269 269 269 269 269 268 269 271 275 276 277 278 277 274 273 273 273 273 272 273 273 274 274 274
278 278 278 277 276 276 276 275 274 274 271 271 271 271 271 270 269 269 269 268 269 269 270 270 269 270 273 275 276 277 276 275 274 272 272 272 271 271 273 273 273 273
278 278 278 277 277 277 276 276 274 272 272 271 271 271 271 269 269 268 268 268 269 269 269 268 268 268 269 275 276 276 277 275 274 272 271 271 271 272 272 272 272 272
Wind_Speed
6 5 6 5 4 4 5 4 3 3 3 2 4 2 2 1 3 3 3 3 3 2 3 3 3 3 4 4 3 3 2 2 3 2 4 4 3 4 4 4 2 3
6 5 5 5 5 4 3 3 3 3 3 2 2 2 1 2 3 2 2 2 2 2 2 3 3 3 3 3 3 3 2 2 2 3 2 4 4 5 5 4 2 3
5 5 5 5 6 4 4 3 3 3 3 2 2 2 2 2 1 1 1 1 2 2 2 2 2 3 3 3 3 3 2 2 3 4 4 3 3 4 5 5 5 4
4 4 5 5 5 5 3 4 3 3 2 3 2 1 1 1 0 1 1 1 1 1 2 2 2 3 3 3 3 3 2 2 2 4 5 4 4 5 6 5 6 5
5 5 4 4 3 4 3 4 3 3 3 3 1 1 0 0 0 0 0 1 1 2 2 2 2 2 3 3 3 3 3 3 4 5 5 5 3 4 5 5 6 6
4 4 4 4 4 4 4 4 3 3 3 2 2 0 1 1 0 0 1 1 1 1 2 2 2 2 3 3 3 2 3 4 5 5 6 6 6 5 5 6 7 8
5 5 4 3 3 3 4 3 3 3 2 2 1 1 1 1 1 1 0 1 1 2 2 2 2 3 3 3 2 2 3 4 5 6 6 6 6 7 6 7 7 8
5 4 4 4 4 3 3 3 3 3 2 2 2 1 2 1 1 0 0 1 1 2 2 3 2 2 2 2 2 2 3 4 5 6 7 7 7 7 7 6 7 7
5 4 4 4 4 3 3 3 3 3 2 3 2 2 1 1 0 0 1 1 1 2 3 3 3 3 2 2 2 2 4 5 5 6 7 7 8 8 8 8 8 8
5 4 5 4 5 4 4 3 3 3 2 3 2 1 1 0 0 0 0 0 1 2 3 3 3 3 2 2 2 3 5 6 6 7 7 7 8 8 8 9 9 9
5 5 5 5 5 4 4 3 3 3 3 3 2 2 1 0 0 0 0 0 1 2 2 3 3 3 3 3 3 2 4 6 7 7 7 8 8 9 9 9 9 9
6 5 6 6 6 5 4 4 4 3 3 3 3 2 0 0 1 1 0 1 1 2 2 2 3 3 3 3 3 4 4 6 7 7 8 8 8 9 8 8 9 9
6 6 6 6 6 5 4 3 3 3 3 3 3 2 1 1 0 1 1 0 1 1 2 2 3 3 3 4 3 4 5 6 8 8 8 8 8 9 9 9 9 8
6 6 6 6 5 4 4 4 3 3 3 2 2 2 1 1 1 1 1 0 1 2 2 2 3 3 3 3 4 4 5 5 8 9 9 9 9 9 9 9 9 8
6 5 4 5 4 3 3 3 3 3 3 3 2 2 1 1 1 0 1 2 2 2 3 3 3 4 3 4 4 5 4 7 8 8 9 10 9 10 10 10 9 8
6 5 5 5 4 4 4 4 4 3 3 3 2 1 1 0 0 0 0 1 2 3 3 3 3 3 6 12 10 6 5 5 7 8 9 9 9 9 10 9 9 8
6 6 5 6 5 4 3 4 4 4 3 3 2 2 1 1 0 0 1 1 1 3 3 3 4 4 10 11 12 13 8 7 8 8 8 8 6 8 10 9 9 9
6 6 6 6 4 5 5 4 4 4 4 3 3 2 2 1 1 1 1 1 1 2 3 3 3 7 11 11 12 13 11 8 7 8 7 5 6 8 8 8 9 9
6 7 7 6 5 5 4 4 5 4 4 3 3 3 2 1 2 0 1 1 1 2 3 3 3 7 10 11 11 12 13 11 7 7 5 6 8 8 8 8 9 9
7 7 7 6 4 5 5 5 5 6 4 4 3 2 2 2 1 2 1 1 1 2 2 3 3 6 10 11 11 12 13 11 6 7 7 7 7 7 7 8 9 9
7 7 7 5 5 5 5 6 6 5 4 4 4 4 4 4 3 2 1 1 1 1 2 3 3 7 9 10 11 12 13 10 6 6 6 6 6 7 8 8 8 8
8 8 7 5 6 5 6 7 6 6 5 4 3 3 3 1 2 2 2 2 2 1 2 3 3 7 8 9 10 11 13 5 5 6 6 6 6 7 7 7 7 7
8 8 8 7 6 7 7 8 7 6 4 4 3 4 4 4 4 3 2 2 2 2 2 3 3 5 8 9 9 11 8 4 6 5 6 6 6 7 7 7 7 7
9 9 8 7 7 9 9 8 5 4 5 5 6 5 5 5 3 3 2 2 2 3 2 3 4 4 7 8 9 10 9 5 6 5 6 6 6 6 6 6 7 11
8 8 8 8 9 9 8 7 7 7 4 4 5 4 4 2 3 2 2 2 3 3 3 3 4 4 7 8 9 9 7 3 5 4 5 5 5 6 7 6 7 8
7 9 8 9 9 8 7 7 4 3 5 5 4 5 5 3 2 2 3 3 2 3 3 3 3 3 3 8 8 8 9 4 4 4 5 6 6 5 4 6 7 6
Wind_Direction
113 109 115 112 111 118 127 119 119 116 105 95 94 81 71 37 33 34 26 15 19 24 359 354 352 355 340 336 337 343 336 334 338 343 349 333 322 326 346 343 352 347
112 114 114 109 101 91 91 113 130 118 116 98 101 100 70 65 28 41 20 12 5 358 357 358 354 341 333 337 336 330 338 325 334 358 344 334 337 334 337 340 337 335
114 114 119 121 123 120 120 111 111 115 111 111 99 86 71 70 38 17 353 45 346 346 4 360 344 332 331 333 331 327 340 334 8 343 338 334 331 331 326 331 326 333
112 119 121 118 122 133 132 118 107 108 112 95 79 59 72 57 45 8 356 3 320 356 358 355 333 325 331 324 325 326 315 347 1 339 340 340 337 331 326 325 319 315
130 117 113 117 123 123 132 120 127 135 120 107 86 69 107 75 359 360 320 293 314 352 5 338 327 324 325 320 320 332 339 353 345 343 339 332 331 334 326 324 320 317
102 114 122 133 138 139 130 132 151 142 113 120 158 168 197 216 219 238 262 292 328 354 350 327 320 314 321 322 316 335 335 348 342 340 338 332 329 326 323 320 319 317
130 125 133 128 132 138 129 147 155 117 152 164 141 205 199 201 214 245 266 290 319 357 356 320 309 307 316 324 335 349 341 344 340 338 332 326 322 321 321 321 319 318
131 134 139 143 139 138 138 155 133 145 173 162 185 214 187 212 208 258 293 290 332 1 344 319 306 295 301 326 340 350 352 350 338 335 327 323 321 319 322 316 314 311
135 149 148 153 139 149 157 158 150 183 176 183 198 208 228 208 225 255 282 299 352 359 336 318 310 294 295 324 344 347 353 342 336 328 325 322 320 319 318 318 311 311
152 153 153 157 150 176 171 171 175 187 189 193 200 200 200 301 139 265 255 333 20 349 327 314 313 305 301 314 328 345 343 335 328 325 320 318 317 316 316 315 312 314
163 163 165 164 169 185 180 179 188 193 198 196 184 209 223 38 360 279 237 54 16 329 318 318 309 310 309 313 310 312 330 329 324 322 320 316 315 312 312 313 313 314
169 173 177 172 184 188 185 188 184 194 198 204 183 186 234 155 278 302 269 355 331 306 302 306 308 315 311 306 306 305 314 326 321 318 318 318 315 313 315 316 316 317
176 188 180 181 191 188 183 181 189 198 192 201 196 176 170 231 265 285 307 127 295 299 305 306 314 319 314 313 307 303 300 313 323 321 320 320 317 316 318 321 319 316
186 190 182 189 190 177 182 185 190 195 206 192 160 173 189 212 246 267 313 350 293 295 296 301 310 315 318 307 297 289 290 296 322 324 322 319 319 320 324 321 317 312
180 193 189 187 180 174 184 189 194 202 199 182 178 194 165 185 232 273 332 341 329 319 312 312 308 306 298 290 285 288 280 319 326 324 321 320 319 324 324 322 317 317
181 187 188 183 176 184 191 188 194 201 194 187 198 184 157 136 165 251 212 299 326 326 323 319 311 301 299 315 327 326 323 324 325 323 323 320 322 323 323 323 322 321
180 191 184 190 187 182 189 187 198 199 196 197 196 182 189 156 150 221 246 291 315 320 322 321 313 299 309 324 328 332 332 328 325 322 320 321 325 330 326 323 321 324
189 186 191 196 177 192 194 196 195 196 200 198 194 217 220 135 175 214 234 246 292 305 308 309 308 311 325 326 329 330 331 328 324 321 323 330 338 332 323 319 323 324
185 189 197 192 191 189 195 190 195 203 206 196 214 215 171 205 223 180 256 237 267 296 303 304 302 313 327 329 331 332 331 332 326 332 338 334 330 326 323 324 323 324
188 194 200 197 177 186 193 197 200 212 207 201 193 177 205 229 228 224 220 242 240 268 285 291 302 303 331 335 335 334 332 335 336 330 323 325 328 326 325 325 326 326
192 198 203 188 178 189 198 206 210 215 206 203 193 206 213 229 231 229 236 225 241 244 269 293 283 315 338 337 336 336 337 345 335 327 324 324 325 326 325 322 323 320
190 200 201 184 180 191 204 214 212 212 210 197 195 216 224 218 233 195 233 236 241 248 285 294 289 320 334 337 337 337 342 350 330 325 323 321 323 329 323 321 317 323
192 196 197 186 184 193 210 215 211 216 213 176 194 212 222 227 232 225 209 228 264 264 274 282 282 307 329 335 337 339 344 347 334 326 323 326 328 327 324 321 318 328
191 193 194 188 184 203 212 215 210 206 203 184 196 207 221 229 219 214 216 209 247 267 251 273 285 300 320 332 336 339 343 344 332 326 325 328 330 328 325 319 323 328
188 193 195 188 195 210 209 208 203 202 186 173 202 197 215 186 175 205 231 232 235 254 264 260 279 294 316 328 333 338 339 337 334 320 321 328 328 324 315 319 323 320
186 194 197 192 201 208 208 211 182 167 182 184 201 197 209 191 190 199 241 258 235 247 261 260 283 291 303 322 331 337 339 340 333 322 318 318 309 288 307 323 318 318